{"data":{"norad_id":49393,"epoch":"2026-09-20T17:53:56.517792Z","epoch_age_seconds":86126,"freshness":"FRESH","line1":"1 49393U 21101D   26263.74579303  .00008526  00000+0  34034-3 0  9997","line2":"2 49393  35.0060  23.3578 0004862 184.0744 175.9932 15.24410573271592","mean_motion":15.24410573,"eccentricity":0.0004862,"inclination_deg":35.006,"raan_deg":23.3578,"arg_perigee_deg":184.0744,"mean_anomaly_deg":175.9932,"bstar":0.00034034,"rev_number":27159,"period_min":94.462740255476,"perigee_km":489.21540901621,"apogee_km":495.89647083099,"semimajor_km":6870.6929399236,"source":"CELESTRAK","updated_at":"2026-09-21T09:00:08.077938Z"}}